Location: C.E.K. Mees Observatory
(42.7003°N, 77.4088°W)
Time: 16:29:02
(UTC-05:00)

Vanguard 3 - All Passes

Search period start: 17 February 2018 00:00
Search period end: 27 February 2018 00:00
Orbit: 508 x 3264 km, 33.3° (Epoch: 17 February)

Date Brightness Start Highest point End Pass type
(mag) Time Alt. Az. Time Alt. Az. Time Alt. Az.
17 Feb - 16:42:06 10° SSW 16:44:24 15° SSE 16:46:38 10° SE daylight
17 Feb - 18:52:05 10° SW 18:55:07 23° S 18:58:46 10° SE visible
17 Feb - 21:03:10 10° SW 21:06:15 17° SSW 21:10:14 10° SSE visible
18 Feb - 15:29:54 10° S 15:31:11 11° SSE 15:32:23 10° SE daylight
18 Feb - 17:39:09 10° SW 17:41:59 21° S 17:44:57 10° SE daylight
18 Feb - 19:49:56 10° SW 19:52:51 19° S 19:56:27 10° SE visible
19 Feb - 16:26:04 10° SW 16:28:52 18° S 16:31:25 10° SE daylight
19 Feb - 18:36:49 10° SW 18:39:37 20° S 18:42:47 10° SE visible
19 Feb - 20:48:52 10° SW 20:50:42 12° SSW 20:52:47 10° S visible
20 Feb - 15:12:52 10° SSW 15:15:37 15° SSE 15:17:58 10° SE daylight
20 Feb - 17:23:33 10° SW 17:26:29 21° S 17:29:22 10° SE daylight
20 Feb - 19:35:02 10° SW 19:37:19 15° SSW 19:39:55 10° SSE visible
21 Feb - 13:59:53 10° S 14:02:11 12° SSE 14:04:11 10° SE daylight
21 Feb - 16:10:01 10° SW 16:13:20 21° S 16:16:12 10° SE daylight
21 Feb - 18:21:30 10° SW 18:24:06 18° S 18:26:49 10° SE visible
22 Feb - 14:56:11 10° SW 15:00:04 19° S 15:03:07 10° SE daylight
22 Feb - 17:07:52 10° SW 17:10:59 21° S 17:13:51 10° SE daylight
22 Feb - 19:20:28 10° SW 19:21:44 11° SSW 19:23:05 10° S visible
23 Feb - 13:42:17 10° SSW 13:46:36 17° SSE 13:49:54 10° SE daylight
23 Feb - 15:53:54 10° SW 15:57:49 23° S 16:00:58 10° SE daylight
23 Feb - 18:06:11 10° SW 18:08:33 16° SSW 18:10:55 10° SSE daylight
24 Feb - 12:28:41 10° S 12:32:51 14° SSE 12:36:10 10° SE daylight
24 Feb - 14:39:34 10° SW 14:44:32 24° S 14:48:07 10° ESE daylight
24 Feb - 16:52:05 10° WSW 16:55:27 22° S 16:58:21 10° SE daylight
25 Feb - 11:16:35 10° S 11:18:48 11° SSE 11:20:48 10° SE daylight
25 Feb - 13:25:02 10° SW 13:31:00 23° S 13:35:09 10° ESE daylight
25 Feb - 15:37:43 10° WSW 15:42:17 26° S 15:45:43 10° SE daylight
25 Feb - 17:50:50 10° SW 17:52:58 14° SSW 17:55:00 10° SSE daylight
26 Feb - 12:10:36 10° SSW 12:17:09 20° SSE 12:21:49 10° ESE daylight
26 Feb - 14:22:56 10° SW 14:28:58 29° S 14:33:02 10° ESE daylight
26 Feb - 16:36:13 10° WSW 16:39:54 22° SSW 16:42:54 10° SE daylight
